weather.gov     
National Weather Service

Regional Weather Roundup
NWS Homepage
This page is being discontinued on March 12, 2014.
The same data is available at this site. Please update your bookmarks.
Thank you, and we apologize for the inconvenience.
Please send an email to SR-SRH.Webmaster@noaa.gov with any concerns.


Current Version
Previous Version:    01  02  03  04  05  06  07  08  09  10  11  12  13  14  15  16  17  18  19  20  21  22  23  24  25  26  
[Printable]
947
ASPQ40 PGUM 232312
RWRPQ
WEATHER ROUNDUP FOR THE MARIANAS AND MICRONESIA
NATIONAL WEATHER SERVICE TIYAN GU
900 AM GSST THU APR 24 2014

GUZ001>004-240000-
MARIANA ISLANDS-

CITY           SKY/WX    TMP DP  RH WIND       PRES   REMARKS
GUAM AIRPORT   MOSUNNY   84  72  65 E12       29.91R
ANDERSEN AFB   MOSUNNY   82  72  69 E10       29.91R
ROTA AIRPORT   MOSUNNY   82  73  74 E13       29.92R
TINIAN AP      MOSUNNY   84  72  65 E10       29.89S
SAIPAN AP      SUNNY     84  72  65 E10       29.90R

$$

PMZ161-240000-
REPUBLIC OF PALAU-

CITY           SKY/WX    TMP DP  RH WIND       PRES   REMARKS
KOROR AP       MOSUNNY   82  75  78 E5        29.84R
KOROR WSO      MOSUNNY   84  75  74 SE3       29.86R HX  92

$$

PMZ171>174-240000-
FEDERATED STATES OF MICRONESIA-

CITY           SKY/WX    TMP DP  RH WIND       PRES   REMARKS
YAP AIRPORT    PTSUNNY   81  75  83 NE9       29.85R
CHUUK AP       CLOUDY    82  75  78 NE12      29.78R
POHNPEI AP     PTSUNNY   86  77  74 NE10      29.76F HX  97
POHNPEI WSO    PTSUNNY   88  79  74 NE6       29.84F HX 102
KOSRAE AP      NOT AVBL

$$

PMZ181-240000-
REPUBLIC OF THE MARSHALL ISLANDS-

CITY           SKY/WX    TMP DP  RH WIND       PRES   REMARKS
KWAJALEIN AP   CLOUDY    82  75  78 SE16      29.87R
MAJURO AP      PTSUNNY   82  77  83 NE15      29.84S HX  91
MAJURO WSO     PTSUNNY   82  77  83 NE12      29.84F HX  91

$$





U.S. Dept. of Commerce
NOAA National Weather Service
1325 East West Highway
Silver Spring, MD 20910
E-mail: w-nws.webmaster@noaa.gov
Page last modified: May 16, 2007
NATIONAL WEATHER SERVICE: for Safety, for Work, for Fun - FOR LIFE